| time (UTC) | temp C | wind direction | speed KPH | gust KPH | rain 1hr cm | rain 24hr cm | rain mn cm | humidity % | barometer mb |
| 20260502161947 | 20 | 0 | 9.7 | 32.2 | 0.00 | 2.64 | 0.00 | 57 | 1020.9 |
| 20260502161151 | 20 | 0 | 8.0 | 32.2 | 0.00 | 2.77 | 0.00 | 59 | 1020.8 |
| 20260502151946 | 18 | 4 | 14.5 | 35.4 | 0.00 | 3.02 | 0.00 | 67 | 1020.7 |
| 20260502150447 | 17 | 45 | 4.8 | 29.0 | 0.00 | 3.10 | 0.00 | 71 | 1020.7 |
| 20260502130445 | 12 | 347 | 3.2 | 11.3 | 0.00 | 5.66 | 0.00 | 86 | 1019.5 |
| 20260502123444 | 11 | 0 | 4.8 | 14.5 | 0.00 | 6.43 | 0.00 | 88 | 1019.0 |
| 20260502121942 | 11 | 4 | 4.8 | 11.3 | 0.00 | 6.53 | 0.00 | 88 | 1018.8 |
| 20260502120443 | 11 | 0 | 3.2 | 11.3 | 0.00 | 7.09 | 0.00 | 88 | 1018.7 |
| 20260502114942 | 11 | 358 | 3.2 | 11.3 | 0.00 | 7.54 | 0.00 | 88 | 1018.5 |
| 20260502113443 | 11 | 0 | 3.2 | 8.0 | 0.00 | 7.59 | 0.00 | 88 | 1018.4 |
| 20260502111940 | 11 | 358 | 3.2 | 11.3 | 0.00 | 7.72 | 0.00 | 88 | 1018.3 |
| 20260502110442 | 11 | 3 | 4.8 | 11.3 | 0.00 | 7.85 | 0.00 | 88 | 1018.0 |
| 20260502104940 | 11 | 347 | 3.2 | 17.7 | 0.00 | 7.90 | 0.00 | 88 | 1017.9 |
| 20260502103440 | 11 | 337 | 8.0 | 17.7 | 0.00 | 8.03 | 0.00 | 88 | 1017.8 |
| 20260502101939 | 11 | 0 | 3.2 | 17.7 | 0.00 | 8.08 | 0.00 | 88 | 1017.7 |
| 20260502100441 | 11 | 0 | 4.8 | 17.7 | 0.00 | 8.13 | 0.00 | 88 | 1017.5 |
| 20260502090439 | 11 | 0 | 3.2 | 8.0 | 0.00 | 8.86 | 0.00 | 88 | 1016.3 |
| 20260502070435 | 12 | 0 | 4.8 | 14.5 | 0.00 | 9.60 | 0.00 | 86 | 1016.5 |
| 20260502064935 | 12 | 358 | 8.0 | 22.5 | 0.00 | 9.60 | 0.00 | 86 | 1016.2 |
| 20260502063437 | 12 | 27 | 8.0 | 20.9 | 0.00 | 9.60 | 0.00 | 87 | 1016.2 |
| 20260502061932 | 12 | 354 | 3.2 | 17.7 | 0.00 | 9.60 | 0.00 | 87 | 1016.0 |
| 20260502060435 | 12 | 7 | 12.9 | 25.7 | 0.00 | 9.65 | 0.00 | 88 | 1016.1 |
| 20260502054933 | 12 | 306 | 4.8 | 29.0 | 0.00 | 9.65 | 0.00 | 88 | 1016.0 |
| 20260502053435 | 12 | 58 | 9.7 | 29.0 | 0.00 | 9.65 | 0.00 | 88 | 1016.1 |
| 20260502051933 | 12 | 354 | 9.7 | 20.9 | 0.00 | 9.70 | 0.00 | 89 | 1016.1 |
| 20260502050434 | 12 | 1 | 4.8 | 25.7 | 0.00 | 9.80 | 0.00 | 89 | 1016.1 |
| 20260502044932 | 12 | 4 | 14.5 | 29.0 | 0.00 | 9.83 | 9.80 | 89 | 1016.1 |
| 20260502043434 | 13 | 0 | 6.4 | 25.7 | 0.00 | 9.83 | 9.80 | 89 | 1016.0 |
| 20260502042627 | 13 | 7 | 11.3 | 25.7 | 0.00 | 9.86 | 9.80 | 89 | 1015.9 |
| 20260502040432 | 13 | 1 | 8.0 | 25.7 | 0.00 | 9.86 | 9.80 | 89 | 1016.1 |
| 20260502034931 | 13 | 350 | 9.7 | 32.2 | 0.00 | 9.86 | 9.80 | 89 | 1016.0 |
| 20260502033432 | 13 | 340 | 14.5 | 25.7 | 0.00 | 9.86 | 9.80 | 89 | 1015.8 |
| 20260502031930 | 13 | 281 | 6.4 | 22.5 | 0.00 | 9.86 | 9.80 | 89 | 1015.6 |
| 20260502030431 | 13 | 343 | 9.7 | 25.7 | 0.05 | 9.86 | 9.80 | 89 | 1015.3 |
| 20260502024929 | 13 | 24 | 8.0 | 22.5 | 0.13 | 9.78 | 9.80 | 89 | 1014.6 |
| 20260502023433 | 13 | 0 | 9.7 | 35.4 | 0.20 | 9.78 | 9.80 | 89 | 1014.7 |
| 20260502021929 | 13 | 4 | 16.1 | 32.2 | 0.28 | 9.78 | 9.80 | 89 | 1014.6 |
| 20260502020430 | 13 | 0 | 9.7 | 29.0 | 0.30 | 9.78 | 9.75 | 89 | 1014.5 |
| 20260502014930 | 13 | 355 | 14.5 | 32.2 | 0.23 | 9.50 | 9.68 | 89 | 1014.2 |
| 20260502013429 | 13 | 347 | 16.1 | 40.2 | 0.20 | 9.50 | 9.60 | 89 | 1013.6 |
| 20260502012631 | 13 | 355 | 6.4 | 22.5 | 0.18 | 9.50 | 9.50 | 90 | 1014.2 |
| 20260502010430 | 13 | 319 | 8.0 | 46.7 | 0.18 | 9.50 | 9.45 | 89 | 1013.4 |
| 20260502005631 | 14 | 333 | 12.9 | 32.2 | 0.25 | 9.30 | 9.45 | 90 | 1012.5 |
| 20260502003429 | 14 | 0 | 4.8 | 17.7 | 0.25 | 9.30 | 9.40 | 90 | 1013.3 |
| 20260502001928 | 15 | 355 | 4.8 | 17.7 | 0.28 | 9.30 | 9.32 | 90 | 1013.1 |
| 20260502000427 | 15 | 0 | 4.8 | 20.9 | 0.66 | 9.30 | 9.27 | 90 | 1012.4 |
| 20260501234926 | 15 | 358 | 6.4 | 11.3 | 0.81 | 8.51 | 9.19 | 90 | 1012.5 |
| 20260501233426 | 15 | 72 | 3.2 | 11.3 | 0.81 | 8.51 | 9.14 | 90 | 1012.4 |
| 20260501231925 | 15 | 0 | 3.2 | 14.5 | 0.71 | 8.51 | 9.04 | 89 | 1012.3 |
| 20260501231138 | 15 | 16 | 8.0 | 17.7 | 0.30 | 8.51 | 8.59 | 89 | 1012.2 |
| 20260501224924 | 15 | 338 | 6.4 | 17.7 | 0.28 | 8.31 | 8.38 | 89 | 1010.7 |
| 20260501223425 | 15 | 118 | 6.4 | 29.0 | 0.25 | 8.31 | 8.33 | 90 | 1010.2 |
| 20260501221923 | 15 | 330 | 8.0 | 29.0 | 0.28 | 8.31 | 8.33 | 90 | 1010.6 |
| 20260501221122 | 15 | 0 | 4.8 | 20.9 | 0.28 | 8.31 | 8.31 | 90 | 1012.1 |
| 20260501220331 | 15 | 343 | 4.8 | 25.7 | 0.15 | 8.05 | 8.10 | 90 | 1012.3 |
| 20260501214119 | 15 | 319 | 8.0 | 20.9 | 0.23 | 8.05 | 8.08 | 90 | 1011.9 |
| 20260501211922 | 15 | 0 | 9.7 | 22.5 | 0.28 | 8.05 | 8.05 | 90 | 1011.1 |
| 20260501210424 | 15 | 0 | 12.9 | 25.7 | 0.33 | 8.05 | 8.03 | 90 | 1009.8 |
| 20260501204922 | 15 | 351 | 8.0 | 25.7 | 0.25 | 7.75 | 7.95 | 90 | 1011.1 |
| 20260501203427 | 16 | 0 | 9.7 | 35.4 | 0.18 | 7.75 | 7.85 | 90 | 1010.3 |
| 20260501201921 | 16 | 18 | 11.3 | 29.0 | 0.10 | 7.75 | 7.77 | 90 | 1010.7 |
| 20260501201124 | 16 | 327 | 8.0 | 22.5 | 0.10 | 7.75 | 7.70 | 90 | 1010.9 |
| 20260501194920 | 16 | 338 | 6.4 | 20.9 | 0.15 | 7.65 | 7.70 | 90 | 1010.7 |
| 20260501193422 | 16 | 357 | 4.8 | 17.7 | 0.15 | 7.65 | 7.67 | 90 | 1010.2 |
| 20260501191920 | 16 | 351 | 6.4 | 17.7 | 0.20 | 7.65 | 7.67 | 90 | 1009.8 |
| 20260501190422 | 16 | 34 | 4.8 | 14.5 | 0.15 | 7.65 | 7.59 | 90 | 1009.5 |
| 20260501184920 | 16 | 0 | 3.2 | 17.7 | 0.15 | 7.47 | 7.54 | 90 | 1010.0 |
| 20260501183420 | 16 | 341 | 6.4 | 20.9 | 0.18 | 7.47 | 7.52 | 90 | 1009.6 |
| 20260501181918 | 16 | 82 | 8.0 | 22.5 | 0.13 | 7.47 | 7.47 | 90 | 1008.9 |
| 20260501181111 | 16 | 59 | 4.8 | 17.7 | 0.13 | 7.47 | 7.44 | 90 | 1009.3 |
| 20260501175620 | 16 | 48 | 8.0 | 20.9 | 0.10 | 7.34 | 7.39 | 90 | 1010.2 |
| 20260501173419 | 16 | 7 | 9.7 | 25.7 | 0.10 | 7.34 | 7.34 | 90 | 1011.2 |
| 20260501173303 | 16 | 354 | 4.8 | 17.7 | 0.18 | 7.34 | 7.34 | 90 | 1011.0 |
| 20260501170417 | 16 | 354 | 3.2 | 32.2 | 0.28 | 7.34 | 7.32 | 90 | 1011.2 |
| 20260501164917 | 16 | 358 | 12.9 | 35.4 | 0.30 | 7.06 | 7.29 | 90 | 1011.9 |
| 20260501163417 | 16 | 0 | 11.3 | 43.5 | 0.28 | 7.06 | 7.24 | 90 | 1012.3 |